User: anonymous   Login
Location: Bangkok
(13.7500°N, 100.5170°E)
Time: 02:50:34
(UTC+07:00)
Language:

SPOT 1/Viking Rocket - Orbit

View from above orbital plane
View from above orbital plane
View from above satellite
View from above satellite

Ground track
Ground track

The orbit data is extracted from the following two-line orbital elements,

1 16615U 86019C   16119.14928578  .00000059  00000-0  38817-4 0  9990
2 16615  98.6622 182.4357 0011889 180.9996 231.7976 14.31585589580112
Epoch (UTC): 28 April 2016 03:34:58
Eccentricity: 0.0011889
inclination: 98.6622°
perigee height: 778 km
apogee height: 795 km
right ascension of ascending node: 182.4357°
argument of perigee: 180.9996°
revolutions per day: 14.31585589
mean anomaly at epoch: 231.7976°
orbit number at epoch: 58011

The dashed part of the orbit path shows where the satellite is in the earth's shadow,  

DLR